This is the latest recevied weather packets stored in our database for station/object DL8TF-13. If no packets are shown the sender has not sent any weather packets the latest 10 day(s).
| Time | Temp. | Humidity | Pressure | Rain* | Wind** | Luminosity | Snow |
|---|---|---|---|---|---|---|---|
| 1777842834 | 18.33° C | 38% | 983 hPa | - | - | - | - |
| 1777842234 | 18.89° C | 38% | 983 hPa | - | - | - | - |
| 1777841634 | 18.89° C | 38% | 983 hPa | - | - | - | - |
| 1777841034 | 18.89° C | 37% | 983 hPa | - | - | - | - |
| 1777840434 | 18.89° C | 36% | 983 hPa | - | - | - | - |
| 1777839834 | 18.89° C | 37% | 983 hPa | - | - | - | - |
| 1777839234 | 19.44° C | 35% | 983 hPa | - | - | - | - |
| 1777838634 | 19.44° C | 34% | 983 hPa | - | - | - | - |
| 1777838034 | 20° C | 32% | 982 hPa | - | - | - | - |
| 1777837434 | 20° C | 31% | 982 hPa | - | - | - | - |
| 1777836834 | 20° C | 32% | 982 hPa | - | - | - | - |
| 1777836234 | 20° C | 31% | 982 hPa | - | - | - | - |
| 1777835634 | 20.56° C | 31% | 982 hPa | - | - | - | - |
| 1777835034 | 20.56° C | 31% | 982 hPa | - | - | - | - |
| 1777834434 | 21.11° C | 30% | 982 hPa | - | - | - | - |
| 1777833833 | 21.11° C | 30% | 982 hPa | - | - | - | - |
| 1777833233 | 21.11° C | 30% | 982 hPa | - | - | - | - |
| 1777832633 | 21.67° C | 29% | 981 hPa | - | - | - | - |
| 1777832033 | 21.67° C | 32% | 981 hPa | - | - | - | - |
| 1777831433 | 22.78° C | 40% | 981 hPa | - | - | - | - |
| 1777830833 | 22.78° C | 39% | 981 hPa | - | - | - | - |
| 1777830233 | 23.33° C | 38% | 981 hPa | - | - | - | - |
| 1777829633 | 23.33° C | 37% | 981 hPa | - | - | - | - |
| 1777829033 | 23.33° C | 35% | 981 hPa | - | - | - | - |
| 1777828433 | 23.89° C | 35% | 980 hPa | - | - | - | - |
* Rain since midnight (hover to see other rain measurements)
** Current wind speed in m/s (hover to see current wind gust speed)